St. Johns, AZ

8:28 PM MST on July 23, 2017 (GMT -0700)
Saint Johns Industrial

Weather History for KSJN - February, 2014

Change the Weather History Date:

Thursday, February 20, 2014

  Actual Average (KLSB) Record (KLSB)
Temperature  
Mean Temperature 32 °F -  
Max Temperature 46 °F 63 °F 75 °F (2016)
Min Temperature 19 °F 27 °F 32 °F (2013)
Degree Days  
Heating Degree Days 32    
Moisture  
Dew Point 1 °F    
Average Humidity 23    
Maximum Humidity 50    
Minimum Humidity 7    
Precipitation  
Precipitation 0.00 in - - ()
Sea Level Pressure  
Sea Level Pressure 30.07 in    
Wind  
Wind Speed 7 mph (West)    
Max Wind Speed 14 mph    
Max Gust Speed -    
Visibility 10 miles    
Events      
Averages and records for this station are not official NWS values.
T = Trace of Precipitation, MM = Missing Value Source: NWS Daily Summary

Daily Weather History Graph

Daily Weather History Graph

Search for Another Location

Airport or City:

Trip Planner

Search our weather history database for the weather conditions in past years. The results will help you decide how hot, cold, wet, or windy it might be!

Date:

Astronomy

Feb. 20, 2014 Rise Set
Actual Time 6:57 AM MST 6:05 PM MST
Civil Twilight 6:31 AM MST 6:31 PM MST
Nautical Twilight 6:02 AM MST 7:00 PM MST
Astronomical Twilight 5:33 AM MST 7:29 PM MST
Moon 11:47 PM MST (2/20) 9:57 AM MST (2/20)
Length of Visible Light 11h 59m
Length of Day
11h 08m
Waning Gibbous, 70% of the Moon is Illuminated
Feb 20
Waning Gibbous
Feb 22
Last Quarter
Mar 1
New
Mar 8
First Quarter
Mar 16
Full

Hourly Weather History & Observations

Time (MST) Temp. Windchill Dew Point Humidity Pressure Visibility Wind Dir Wind Speed Gust Speed Precip Events Conditions
12:54 AM 42.1 °F 34.9 °F 10.0 °F 27% 29.81 in 10.0 mi West 13.8 mph - N/A   Clear
1:54 AM 37.0 °F 31.0 °F 8.1 °F 30% 29.86 in 10.0 mi West 8.1 mph - N/A   Clear
2:54 AM 35.1 °F 27.9 °F 6.1 °F 30% 29.89 in 10.0 mi West 9.2 mph - N/A   Clear
3:54 AM 34.0 °F 27.2 °F 5.0 °F 30% 29.92 in 10.0 mi WSW 8.1 mph - N/A   Clear
4:54 AM 33.1 °F 24.4 °F 7.0 °F 34% 29.96 in 10.0 mi WSW 11.5 mph - N/A   Clear
5:54 AM 30.0 °F 22.4 °F 8.1 °F 40% 30.03 in 10.0 mi WSW 8.1 mph - N/A   Clear
6:54 AM 23.0 °F 17.0 °F 7.0 °F 50% 30.12 in 10.0 mi WNW 4.6 mph - N/A   Clear
7:54 AM 30.9 °F - 10.9 °F 43% 30.12 in 10.0 mi Calm Calm - N/A   Clear
8:54 AM 36.0 °F 31.1 °F 12.0 °F 37% 30.16 in 10.0 mi NW 5.8 mph - N/A   Clear
9:54 AM 39.0 °F - 10.0 °F 30% 30.17 in 10.0 mi Calm Calm - N/A   Clear
10:54 AM 42.1 °F 40.2 °F 7.0 °F 24% 30.17 in 10.0 mi Variable 3.5 mph - N/A   Clear
11:54 AM 45.0 °F 41.8 °F -9.0 °F 10% 30.15 in 10.0 mi Variable 5.8 mph - N/A   Clear
12:54 PM 46.0 °F 42.5 °F -4.0 °F 12% 30.12 in 10.0 mi NNW 6.9 mph - N/A   Clear
1:54 PM 46.0 °F 44.8 °F -2.9 °F 13% 30.10 in 10.0 mi Variable 3.5 mph - N/A   Clear
2:54 PM 50.0 °F - -5.1 °F 10% 30.07 in 10.0 mi NNE 5.8 mph - N/A   Clear
3:54 PM 50.0 °F - -7.1 °F 9% 30.07 in 10.0 mi Calm Calm - N/A   Clear
4:54 PM 48.9 °F - -7.1 °F 10% 30.06 in 10.0 mi WSW 3.5 mph - N/A   Clear
5:54 PM 46.0 °F 42.5 °F -8.0 °F 10% 30.09 in 10.0 mi NW 6.9 mph - N/A   Clear
6:54 PM 37.9 °F 33.5 °F -7.1 °F 15% 30.15 in 10.0 mi NW 5.8 mph - N/A   Clear
7:54 PM 35.1 °F 32.2 °F -6.0 °F 17% 30.15 in 10.0 mi WSW 3.5 mph - N/A   Clear
8:54 PM 32.0 °F 28.7 °F -6.0 °F 19% 30.15 in 10.0 mi SSE 3.5 mph - N/A   Clear
9:54 PM 30.0 °F 24.1 °F -7.1 °F 20% 30.15 in 10.0 mi South 5.8 mph - N/A   Clear
10:54 PM 28.9 °F 21.9 °F -4.0 °F 24% 30.14 in 10.0 mi South 6.9 mph - N/A   Clear
11:54 PM 30.0 °F 23.2 °F -4.0 °F 23% 30.10 in 10.0 mi South 6.9 mph - N/A   Clear